EW5922 Weather Reports


time (UTC)temp
F
wind
direction
speed
knots
gust
knots
rain 1hr
in
rain 24hr
in
rain mn
in
humidity
%
barometer
mb
20260505231053 81 250 0.9 7.8 0.00 0.00 0.00 37 1008.5
20260505230553 81 219 1.7 7.8 0.00 0.00 0.00 36 1008.7
20260505225541 81 223 3.5 11.3 0.00 0.00 0.00 34 1008.4
20260505224530 81 221 3.5 11.3 0.00 0.00 0.00 34 1008.4
20260505224029 82 121 2.6 12.2 0.00 0.00 0.00 34 1008.3
20260505223528 82 163 1.7 12.2 0.00 0.00 0.00 33 1008.6
20260505223017 82 224 2.6 11.3 0.00 0.00 0.00 32 1008.5
20260505222518 83 239 4.3 13.0 0.00 0.00 0.00 31 1008.5
20260505222019 83 203 5.2 14.8 0.00 0.00 0.00 31 1008.4
20260505221518 83 61 1.7 14.8 0.00 0.00 0.00 30 1008.1
20260505221017 84 138 4.3 13.0 0.00 0.00 0.00 30 1008.5
20260505220517 84 289 5.2 9.6 0.00 0.00 0.00 30 1008.2
20260505220018 84 265 3.5 9.6 0.00 0.00 0.00 31 1008.0
20260505215506 85 16 2.6 9.6 0.00 0.00 0.00 32 1008.0
20260505215007 84 107 1.7 6.1 0.00 0.00 0.00 35 1007.8
20260505214508 85 152 1.7 7.8 0.00 0.00 0.00 36 1007.7
20260505214007 84 245 1.7 9.6 0.00 0.00 0.00 36 1008.0
20260505213505 84 141 2.6 9.6 0.00 0.00 0.00 36 1007.8
20260505213007 84 267 1.7 8.7 0.00 0.00 0.00 37 1007.7
20260505211953 85 203 2.6 12.2 0.00 0.00 0.00 37 1007.8
20260505210953 85 240 0.9 12.2 0.00 0.00 0.00 35 1007.9
20260505210453 84 330 2.6 9.6 0.00 0.00 0.00 35 1007.9
20260505205954 85 243 1.7 13.9 0.00 0.00 0.00 35 1007.9
20260505205454 85 103 7.0 13.9 0.00 0.00 0.00 35 1007.9
20260505204953 85 187 2.6 12.2 0.00 0.00 0.00 35 1007.7
20260505204441 85 60 1.7 8.7 0.00 0.00 0.00 36 1007.7
20260505203440 85 256 3.5 12.2 0.00 0.00 0.00 34 1007.8
20260505202928 86 337 1.7 12.2 0.00 0.00 0.00 34 1007.9
20260505202428 86 239 5.2 8.7 0.00 0.00 0.00 34 1007.9
20260505201929 86 150 1.7 11.3 0.00 0.00 0.00 34 1007.9
20260505201417 85 159 3.5 11.3 0.00 0.00 0.00 34 1007.7
20260505200917 85 274 0.9 9.6 0.00 0.00 0.00 34 1007.9
20260505195417 85 226 0.9 16.5 0.00 0.00 0.00 35 1008.1
20260505194918 87 167 2.6 7.8 0.00 0.00 0.00 32 1007.9
20260505194417 87 302 3.5 9.6 0.00 0.00 0.00 34 1008.3
20260505193917 86 271 1.7 11.3 0.00 0.00 0.00 34 1008.1
20260505193418 86 286 1.7 11.3 0.00 0.00 0.00 34 1008.5
20260505192416 86 100 1.7 7.0 0.00 0.00 0.00 35 1008.3
20260505191916 86 160 4.3 8.7 0.00 0.00 0.00 35 1008.4
20260505191416 86 239 3.5 9.6 0.00 0.00 0.00 36 1008.5
20260505190916 86 37 1.7 9.6 0.00 0.00 0.00 35 1008.5
20260505190416 86 307 1.7 9.6 0.00 0.00 0.00 37 1008.7
20260505185917 87 193 3.5 7.8 0.00 0.00 0.00 35 1008.9
20260505184420 86 79 1.7 7.0 0.00 0.00 0.00 36 1009.3
20260505183916 87 248 3.5 6.1 0.00 0.00 0.00 37 1009.2
20260505183416 87 245 0.9 6.1 0.00 0.00 0.00 38 1009.3
20260505182916 86 187 0.9 6.1 0.00 0.00 0.00 38 1009.3
20260505182417 86 229 1.7 7.0 0.00 0.00 0.00 39 1009.4
20260505181916 86 190 2.6 7.0 0.00 0.00 0.00 38 1009.2
20260505181417 86 149 0.9 7.8 0.00 0.00 0.00 38 1009.3
20260505180916 85 197 1.7 8.7 0.00 0.00 0.00 37 1009.3
20260505180416 85 301 0.9 8.7 0.00 0.00 0.00 39 1009.5
20260505175916 85 230 1.7 9.6 0.00 0.00 0.00 40 1009.6
20260505175416 84 293 0.9 9.6 0.00 0.00 0.00 41 1009.7
20260505174916 85 103 1.7 8.7 0.00 0.00 0.00 40 1009.8
20260505174417 85 314 1.7 5.2 0.00 0.00 0.00 40 1009.5
20260505173917 85 49 0.9 5.2 0.00 0.00 0.00 41 1009.6
20260505173416 84 235 0.9 5.2 0.00 0.00 0.00 41 1009.6
20260505172916 84 252 3.5 5.2 0.00 0.00 0.00 42 1010.0
20260505172416 84 249 0.9 6.1 0.00 0.00 0.00 43 1010.0
20260505171916 84 167 1.7 6.1 0.00 0.00 0.00 41 1010.0
20260505171416 84 218 2.6 8.7 0.00 0.00 0.00 42 1010.2
20260505170916 84 281 1.7 8.7 0.00 0.00 0.00 45 1010.1
20260505170416 83 230 0.0 7.8 0.00 0.00 0.00 43 1009.9
20260505165905 83 281 0.9 7.8 0.00 0.00 0.00 43 1010.2
20260505165404 83 130 1.7 7.8 0.00 0.00 0.00 45 1010.1
20260505164905 83 287 0.0 5.2 0.00 0.00 0.00 44 1010.1
20260505163853 83 262 0.0 2.6 0.00 0.00 0.00 45 1010.3
20260505163352 83 99 2.6 6.1 0.00 0.00 0.00 43 1010.3
20260505162840 83 238 0.9 6.1 0.00 0.00 0.00 44 1010.2
20260505162340 82 203 1.7 7.0 0.00 0.00 0.00 44 1010.4
20260505161328 82 113 1.7 5.2 0.00 0.00 0.00 45 1010.5
20260505160828 82 258 0.0 5.2 0.00 0.00 0.00 47 1010.6
20260505160329 82 170 0.9 5.2 0.00 0.00 0.00 44 1010.8
20260505153316 81 210 0.9 7.0 0.00 0.00 0.00 47 1011.1
20260505152305 80 231 2.6 7.0 0.00 0.00 0.00 47 1010.9
20260505151305 79 272 2.6 5.2 0.00 0.00 0.00 50 1011.0
20260505150805 79 327 0.9 3.5 0.00 0.00 0.00 48 1010.8
20260505150305 78 250 0.0 5.2 0.00 0.00 0.00 50 1011.1
20260505140240 72 274 2.6 6.1 0.00 0.00 0.00 57 1011.9
20260505130217 68 143 0.9 7.8 0.00 0.00 0.00 63 1011.5
20260505124717 68 250 0.0 2.6 0.00 0.00 0.00 65 1011.5
20260505124217 68 262 1.7 5.2 0.00 0.00 0.00 65 1011.5
20260505122717 67 314 1.7 7.0 0.00 0.00 0.00 66 1011.6
20260505122217 67 251 1.7 7.0 0.00 0.00 0.00 67 1011.6
20260505121718 66 253 0.9 6.1 0.00 0.00 0.00 67 1011.4
20260505121217 66 182 1.7 7.0 0.00 0.00 0.00 67 1011.7
20260505120718 66 219 3.5 7.0 0.00 0.00 0.00 66 1011.7
20260505120217 67 255 1.7 3.5 0.00 0.00 0.00 66 1011.7
20260505115717 66 208 1.7 3.5 0.00 0.00 0.00 66 1011.5
20260505115217 66 177 0.9 3.5 0.00 0.00 0.00 67 1011.4
20260505114704 65 247 1.7 3.5 0.00 0.00 0.00 67 1011.5
20260505114204 65 249 0.0 2.6 0.00 0.00 0.00 70 1011.7
20260505113704 64 222 0.9 5.2 0.00 0.00 0.00 70 1011.5
20260505113204 64 239 0.9 5.2 0.00 0.00 0.00 71 1011.8
20260505112705 64 219 0.0 6.1 0.00 0.00 0.00 71 1011.6
20260505112204 64 301 1.7 6.1 0.00 0.00 0.00 70 1011.8
20260505111152 63 257 1.7 5.2 0.00 0.00 0.00 72 1011.5
20260505110652 63 275 0.9 5.2 0.00 0.00 0.00 72 1011.6
20260505102153 61 214 0.9 5.2 0.00 0.00 0.00 75 1011.3
20260505101653 60 220 1.7 5.2 0.00 0.00 0.00 76 1011.4
20260505101153 60 245 0.9 6.1 0.00 0.00 0.00 77 1011.4
20260505100653 60 254 0.0 6.1 0.00 0.00 0.00 77 1011.4
20260505100153 60 256 1.7 6.1 0.00 0.00 0.00 77 1010.9
20260505095652 59 261 3.5 5.2 0.00 0.00 0.00 79 1011.0
20260505095152 59 249 0.0 2.6 0.00 0.00 0.00 79 1010.9
20260505094652 59 285 1.7 3.5 0.00 0.00 0.00 79 1010.7
20260505094152 59 196 0.9 3.5 0.00 0.00 0.00 79 1010.3
20260505093652 59 253 0.0 2.6 0.00 0.00 0.00 79 1010.5
20260505093140 59 46 0.9 2.6 0.00 0.00 0.00 78 1010.6
20260505092640 59 240 1.7 5.2 0.00 0.00 0.00 78 1010.2
20260505092140 59 171 2.6 5.2 0.00 0.00 0.00 78 1010.3
20260505091640 59 336 2.6 6.1 0.00 0.00 0.00 78 1010.5
20260505091133 59 251 0.0 6.1 0.00 0.00 0.00 77 1010.1
20260505090628 59 170 0.9 5.2 0.00 0.00 0.00 78 1010.2
20260505090127 59 213 0.9 3.5 0.00 0.00 0.00 78 1010.5
20260505085628 59 233 0.9 3.5 0.00 0.00 0.00 78 1010.6
20260505085128 58 250 0.0 2.6 0.00 0.00 0.00 78 1010.4
20260505084628 58 228 0.0 2.6 0.00 0.00 0.00 79 1010.8
20260505084115 58 232 0.9 3.5 0.00 0.00 0.00 79 1010.5
20260505083117 58 268 0.0 2.6 0.00 0.00 0.00 79 1010.7
20260505082605 58 239 0.0 2.6 0.00 0.00 0.00 79 1010.3
20260505082106 58 260 0.0 0.9 0.00 0.00 0.00 79 1010.8
20260505081104 58 222 0.0 0.9 0.00 0.00 0.00 78 1010.7
20260505080605 58 238 0.0 0.9 0.00 0.00 0.00 78 1010.6
20260505080104 58 250 0.0 2.6 0.00 0.00 0.00 77 1010.9
20260505075604 59 237 0.0 2.6 0.00 0.00 0.00 76 1010.6
20260505075104 59 207 0.0 1.7 0.00 0.00 0.00 76 1010.5
20260505074104 58 220 0.9 1.7 0.00 0.00 0.00 76 1010.6
20260505072603 59 226 0.0 1.7 0.00 0.00 0.00 75 1010.4
20260505071603 58 238 0.0 2.6 0.00 0.00 0.00 75 1010.2
20260505071103 58 251 0.0 0.9 0.00 0.00 0.00 75 1010.4
20260505070603 59 255 0.0 1.7 0.00 0.00 0.00 74 1010.5
20260505065603 59 246 0.0 2.6 0.00 0.00 0.00 74 1010.2
20260505065104 59 202 0.9 2.6 0.00 0.00 0.00 73 1010.6
20260505064604 59 263 0.0 1.7 0.00 0.00 0.00 73 1010.6
20260505064104 59 256 0.9 3.5 0.00 0.00 0.00 73 1010.7
20260505063604 59 266 0.0 3.5 0.00 0.00 0.00 73 1010.4
20260505063104 59 288 0.0 2.6 0.00 0.00 0.00 73 1010.5
20260505062604 60 249 0.9 1.7 0.00 0.00 0.00 72 1010.7
20260505062105 60 265 0.9 2.6 0.00 0.00 0.00 72 1010.6
20260505061602 59 279 0.9 1.7 0.00 0.00 0.00 72 1010.5
20260505061103 59 284 0.0 1.7 0.00 0.00 0.00 72 1010.6
20260505060603 59 285 0.9 3.5 0.00 0.00 0.00 72 1010.6
20260505060103 58 70 0.0 3.5 0.00 0.00 0.00 73 1010.6
20260505055604 58 177 0.9 2.6 0.00 0.00 0.00 74 1010.7
20260505055104 58 265 0.0 1.7 0.00 0.00 0.00 74 1010.5
20260505054551 58 246 0.0 1.7 0.00 0.00 0.00 74 1010.5
20260505054051 58 238 0.0 0.0 0.00 0.00 0.00 74 1010.9
20260505053551 58 250 0.0 0.9 0.00 0.00 0.00 74 1010.7
20260505053050 58 257 0.0 0.9 0.00 0.00 0.00 73 1010.7
20260505052552 58 240 0.0 0.9 0.00 0.00 0.00 73 1010.7
20260505052052 59 256 0.0 0.9 0.00 0.00 0.00 72 1010.6
20260505051551 59 243 0.0 1.7 0.00 0.00 0.00 71 1010.6
20260505051051 60 263 0.0 1.7 0.00 0.00 0.00 70 1010.7
20260505050551 60 206 0.9 1.7 0.00 0.00 0.00 70 1010.9
20260505041552 60 103 0.9 1.7 0.00 0.00 0.00 67 1011.0
20260505041052 60 205 0.0 2.6 0.00 0.00 0.00 68 1011.1
20260505040552 60 253 0.0 2.6 0.00 0.00 0.00 67 1011.0
20260505040052 60 251 0.0 1.7 0.00 0.00 0.00 67 1010.9
20260505035051 61 296 0.0 2.6 0.00 0.00 0.00 66 1011.3
20260505034552 61 185 1.7 2.6 0.00 0.00 0.00 66 1010.9
20260505034050 61 242 0.0 0.9 0.00 0.00 0.00 66 1011.1
20260505033552 61 272 0.0 0.9 0.00 0.00 0.00 66 1011.2
20260505033052 61 288 0.0 1.7 0.00 0.00 0.00 65 1011.1
20260505032551 61 259 0.0 1.7 0.00 0.00 0.00 65 1011.1
20260505032051 61 58 0.9 1.7 0.00 0.00 0.00 64 1011.4
20260505031551 62 145 0.9 2.6 0.00 0.00 0.00 63 1011.3
20260505031051 62 298 0.9 2.6 0.00 0.00 0.00 63 1011.0
20260505030552 62 263 0.0 2.6 0.00 0.00 0.00 63 1011.3
20260505030051 62 224 0.0 2.6 0.00 0.00 0.00 62 1011.5
20260505025552 62 183 0.9 2.6 0.00 0.00 0.00 62 1011.2
20260505024551 62 131 0.0 1.7 0.00 0.00 0.00 61 1011.2
20260505024051 62 236 0.0 2.6 0.00 0.00 0.00 60 1011.4
20260505023551 62 179 1.7 2.6 0.00 0.00 0.00 60 1011.4
20260505023051 62 238 0.0 0.9 0.00 0.00 0.00 60 1011.5
20260505021051 63 247 0.0 2.6 0.00 0.00 0.00 58 1011.5
20260505020551 64 130 0.0 2.6 0.00 0.00 0.00 58 1011.6
20260505020051 63 139 0.0 1.7 0.00 0.00 0.00 58 1011.5
20260505015551 64 40 1.7 1.7 0.00 0.00 0.00 57 1011.7
20260505015051 64 340 0.9 1.7 0.00 0.00 0.00 57 1011.6
20260505014552 64 237 0.0 2.6 0.00 0.00 0.00 56 1011.0
20260505014050 64 196 1.7 2.6 0.00 0.00 0.00 55 1011.4
20260505013551 64 34 0.0 2.6 0.00 0.00 0.00 55 1011.5
20260505013051 65 60 0.9 2.6 0.00 0.00 0.00 55 1011.4
20260505012551 65 126 0.9 1.7 0.00 0.00 0.00 54 1011.2
20260505012051 65 259 0.0 3.5 0.00 0.00 0.00 54 1011.0
20260505011551 65 128 0.9 3.5 0.00 0.00 0.00 53 1011.1
20260505010551 66 153 0.0 3.5 0.00 0.00 0.00 51 1011.0
20260505010051 66 223 0.9 0.9 0.00 0.00 0.00 49 1010.7
20260505005551 65 234 0.0 1.7 0.00 0.00 0.00 48 1010.9
20260505005051 65 177 0.9 1.7 0.00 0.00 0.00 47 1010.6
20260505004551 65 230 0.0 0.9 0.00 0.00 0.00 48 1010.6
20260505004051 66 218 0.0 0.9 0.00 0.00 0.00 47 1010.4
20260505003533 67 244 0.0 0.9 0.00 0.00 0.00 45 1010.4
20260505003027 67 229 0.0 2.6 0.00 0.00 0.00 44 1010.5
20260505002027 67 253 0.0 1.7 0.00 0.00 0.00 44 1010.4
20260505001527 68 243 0.0 1.7 0.00 0.00 0.00 43 1010.1
20260505001027 68 175 0.9 3.5 0.00 0.00 0.00 43 1010.2
20260505000527 69 255 0.0 3.5 0.00 0.00 0.00 42 1010.2
20260505000027 69 255 0.9 3.5 0.00 0.00 0.00 42 1010.0
20260504235527 69 257 0.9 2.6 0.00 0.00 0.00 42 1009.9
20260504235028 69 231 0.0 2.6 0.00 0.00 0.00 41 1009.7
20260504234527 70 283 0.9 5.2 0.00 0.00 0.00 40 1009.9
20260504233527 70 243 0.9 5.2 0.00 0.00 0.00 40 1009.8
20260504233027 70 104 0.0 5.2 0.00 0.00 0.00 40 1009.5
20260504232515 71 283 0.9 5.2 0.00 0.00 0.00 39 1009.7
20260504232015 71 266 1.7 7.0 0.00 0.00 0.00 39 1009.4
20260504231517 71 247 1.7 7.0 0.00 0.00 0.00 38 1009.6